LiveATC.Net - Listen to live air traffic control over the Internet!

ICAO: KATW  IATA: ATW   Airport: Outagamie County Regional Airport
City: Appleton   State/Province: Wisconsin
Country: United States   Continent: North America
KATW METAR Weather: KATW 220815Z AUTO 27005KT 10SM OVC120 03/00 A3009 RMK AO2
KATW Flight Activity (FlightAware)
KATW Airport Info   (AirNav) (iFlightPlanner)
KATW VFR Sectional Chart   (iFlightPlanner) 
KATW IFR Low Chart   (iFlightPlanner) 
KATW Gnd/Twr/App
Feed Status: UP   Listeners: 0
Listen right in your browser - requires Flash (in browser, requires Flash)
Click here to listen with your own player (launches your MP3 player)
KATW Gnd/Twr/App Audio Archives
Appleton Ground121.700
Appleton Tower119.600
Green Bay Approach/Departure126.300


Unauthorized use prohibited. See Terms of Service

Find LiveATC Audio Streams

Airport/ARTCC Code

(e.g., 124.400, 128.75)
Site-wide search

Browse LiveATC Feeds
LiveATC Coverage Map
Top 50 LiveATC Feeds
Bad Weather Areas

Offer a LiveATC Feed
Press Inquiries

LiveATC on iPhone
LiveATC on Android

Windows Phone
Windows 8/10

LiveATC Mobile
(Mobile browser)

ATC Audio Archives
Interesting Recordings

LiveATC Forums

Home Page
Make a Donation
LiveATC Store

Terms of Use
Privacy Policy

Canadian Air Freqs


FAA Airport Status
Nat'l Airspace Status
Arrival Demand Charts

Server Software By: